Hopkins, SC

11:51 PM EDT on September 27, 2016 (GMT -0400)
McEntire Angs

Weather History for KMMT - December, 2013

Change the Weather History Date:

Saturday, December 28, 2013

  Actual Average Record
Temperature  
Mean Temperature 40 °F -  
Max Temperature 55 °F 54 °F 78 °F (2015)
Min Temperature 26 °F 32 °F 20 °F (2010)
Degree Days  
Heating Degree Days 24    
Moisture  
Dew Point 32 °F    
Average Humidity 68    
Maximum Humidity 93    
Minimum Humidity 35    
Precipitation  
Precipitation 0.11 in - - ()
Sea Level Pressure  
Sea Level Pressure 30.28 in    
Wind  
Wind Speed 3 mph (NNE)    
Max Wind Speed 7 mph    
Max Gust Speed -    
Visibility 10 miles    
Events Rain    
Averages and records for this station are not official NWS values.
T = Trace of Precipitation, MM = Missing Value Source: NWS Daily Summary

Daily Weather History Graph

Daily Weather History Graph

Search for Another Location

Airport or City:

Trip Planner

Search our weather history database for the weather conditions in past years. The results will help you decide how hot, cold, wet, or windy it might be!

Date:

Astronomy

Dec. 28, 2013 Rise Set
Actual Time 7:27 AM EST 5:22 PM EST
Civil Twilight 6:59 AM EST 5:50 PM EST
Nautical Twilight 6:28 AM EST 6:21 PM EST
Astronomical Twilight 5:58 AM EST 6:51 PM EST
Moon 3:09 AM EST 2:07 PM EST
Length of Visible Light 10h 50m
Length of Day
9h 55m
Waning Crescent, 19% of the Moon is Illuminated
Dec 28
Waning Crescent
Jan 1
New
Jan 7
First Quarter
Jan 15
Full
Jan 24
Last Quarter

Hourly Weather History & Observations

Time (EST) Temp. Windchill Dew Point Humidity Pressure Visibility Wind Dir Wind Speed Gust Speed Precip Events Conditions
12:58 AM 30.4 °F - 26.8 °F 86% 30.43 in 10.0 mi NW 2.3 mph - N/A   Clear
1:58 AM 28.6 °F 24.8 °F 26.1 °F 90% 30.43 in 10.0 mi NW 3.5 mph - N/A   Clear
2:58 AM 27.3 °F - 24.4 °F 89% 30.40 in 10.0 mi Calm Calm - N/A   Clear
3:58 AM 29.1 °F - 26.4 °F 90% 30.40 in 10.0 mi NNW 1.2 mph - N/A   Clear
4:58 AM 26.4 °F - 23.9 °F 90% 30.39 in 10.0 mi NNW 2.3 mph - N/A   Clear
5:58 AM 28.6 °F - 25.2 °F 87% 30.40 in 10.0 mi WNW 1.2 mph - N/A   Clear
6:58 AM 28.8 °F - 25.5 °F 88% 30.41 in 10.0 mi Calm Calm - N/A   Clear
7:58 AM 28.2 °F - 25.3 °F 89% 30.41 in 10.0 mi NNW 2.3 mph - N/A   Clear
8:58 AM 36.1 °F - 31.5 °F 83% 30.43 in 10.0 mi Calm Calm - N/A   Clear
9:58 AM 45.3 °F - 31.5 °F 58% 30.43 in 10.0 mi Variable 2.3 mph - N/A   Clear
10:58 AM 49.5 °F - 28.4 °F 44% 30.40 in 10.0 mi ENE 3.5 mph - N/A   Partly Cloudy
11:58 AM 53.2 °F - 27.0 °F 36% 30.36 in 10.0 mi ENE 6.9 mph - N/A   Partly Cloudy
12:58 PM 54.1 °F - 27.9 °F 36% 30.32 in 10.0 mi Variable 4.6 mph - N/A   Mostly Cloudy
1:58 PM 55.2 °F - 29.7 °F 38% 30.30 in 10.0 mi South 3.5 mph - N/A   Partly Cloudy
2:58 PM 55.8 °F - 28.0 °F 35% 30.27 in 10.0 mi Calm Calm - N/A   Scattered Clouds
3:58 PM 55.9 °F - 28.8 °F 35% 30.27 in 10.0 mi NNE 3.5 mph - N/A   Overcast
4:58 PM 54.5 °F - 30.4 °F 40% 30.25 in 10.0 mi NNE 2.3 mph - N/A   Overcast
5:58 PM 52.9 °F - 32.5 °F 46% 30.25 in 10.0 mi ENE 1.2 mph - N/A   Overcast
6:58 PM 52.7 °F - 32.0 °F 45% 30.22 in 10.0 mi ENE 3.5 mph - N/A   Mostly Cloudy
7:58 PM 53.6 °F - 32.0 °F 44% 30.22 in 10.0 mi ENE 2.3 mph - N/A Rain Light Rain
8:28 PM 51.8 °F - 35.6 °F 54% 30.19 in 10.0 mi NE 3.5 mph - N/A Rain Light Rain
8:58 PM 49.3 °F - 38.7 °F 67% 30.18 in 10.0 mi NNE 4.6 mph - 0.00 in   Light Drizzle
9:38 PM 48.2 °F - 39.2 °F 71% 30.15 in 10.0 mi ENE 3.5 mph - N/A   Light Drizzle
9:58 PM 48.2 °F - 39.2 °F 71% 30.15 in 8.0 mi East 5.8 mph - 0.00 in Rain Light Rain
10:28 PM 46.4 °F 42.9 °F 42.8 °F 87% 30.12 in 5.0 mi East 6.9 mph - N/A Rain Light Rain
10:58 PM 45.5 °F - 42.8 °F 90% 30.13 in 8.0 mi NE 2.3 mph - 0.07 in Rain Light Rain
11:08 PM 46.4 °F 44.3 °F 42.8 °F 87% 30.11 in 5.0 mi NNE 4.6 mph - N/A Rain Light Rain
11:28 PM 44.6 °F 43.1 °F 42.8 °F 93% 30.10 in 10.0 mi NE 3.5 mph - N/A Rain Light Rain
11:58 PM 45.5 °F 44.2 °F 43.5 °F 93% 30.09 in 10.0 mi NNE 3.5 mph - 0.04 in   Overcast